Weather in Lianyungang

China     34°36′04″N   119°10′09″E
temp.,
°C
wind,
m/s
gust,
m/s
humid.,
%
clouds,
%
prec.,
mm/h
press.,
hPa
HPBL,
m
22 january, sat
sat2223:00+2ene247876 0.0 1027106
02:00+2ene2578100 0.0 1026147
05:00+2ene2381100 0.0 102563
08:00+3ene278286 0.0 1025238
11:00+7e5660100 0.0 10251109
14:00+6ene5667100 0.0 1023850
17:00+5ene5877100 0.0 1023669
20:00+5ene5977100 0.0 1024672
23 january, sun
sun2323:00+5ne5973100 0.0 1025687
02:00+5ne6971100 0.0 1025716
05:00+4ne61071100 0.0 1025821
08:00+4nne61067100 0.0 1026787
11:00+5ne7864100 0.0 1027956
14:00+4nne677097 0.0 1025864
17:00+3ne586895 0.0 1025679
20:00+2ene377336 0.0 1026235
24 january, mon
mon2423:00+2nne4869100 0.0 1026342
02:00+2n2472100 0.0 1025208
05:00+1nne3574100 0.0 1024264
08:000nne3493100 0.5 1025283
11:00+1nne2393100 1.1 1026341
14:00+3n2182100 1.3 1024563
17:00+2nne328096 0.0 1024455
20:00+2ne2383100 0.0 1025248
25 january, tue
tue2523:00+2nne1283100 0.0 1025205
02:00+2nnw1184100 0.0 102594
05:00+2n2480100 0.0 1024256
08:00+2nne1377100 0.0 1025289
11:00+4nne226295 0.0 1026758
14:00+6n335774 0.0 10241099
17:00+4ne3364100 0.0 1025181
20:00+2ene2376100 0.0 102780
26 january, wed
wed2623:00+2nne117786 0.0 102720
02:00+1nnw118052 0.0 102816
05:000nne22825 0.0 102831
08:00+1nne38702 0.0 1030368
11:00+5ne67405 0.0 1031906
14:00+6ne684191 0.0 1029986
17:00+4ne4850100 0.0 1030728
20:00+3ene3752100 0.0 1031270